When you browse on this site, cookies collect data to enhance your experience and personalize the content and advertising you see.
Visit our Privacy Policy to learn more. By continuing to use the site, you agree to this use of cookies and data.
  • In Czech Republic
  • List of Countries
  • For 7 days
  • Water Temperature
  • Satellite Maps
  • Weather Map
  • Weather Widgets
  • user-avatar
    Login

    Hourly Weather Finkovo

    Today, 21 November, Wednesday

    Time Temperature Precipitation Wind Pressure Humidity
    00:00 -5°C° 0 mm 2 mps 763 mmHg 89%
    01:00 -5°C° 0 mm 2 mps 763 mmHg 91%
    02:00 -2°C° 0 mm 1 mps 763 mmHg 95%
    03:00 -2°C° 0 mm 1 mps 763 mmHg 95%
    04:00 -2°C° 0 mm 1 mps 763 mmHg 95%
    05:00 -2°C° 0 mm 1 mps 763 mmHg 96%
    06:00 -2°C° 0 mm 1 mps 763 mmHg 96%
    07:00 -2°C° 0 mm 1 mps 763 mmHg 95%
    08:00 -3°C° 0 mm 1 mps 763 mmHg 95%
    09:00 -2°C° 0 mm 1 mps 763 mmHg 92%
    10:00 -1°C° 0 mm 1 mps 763 mmHg 90%
    11:00 0°C° 0 mm 1 mps 764 mmHg 87%
    12:00 0°C° 0 mm 1 mps 763 mmHg 87%
    13:00 0°C° 0 mm 1 mps 763 mmHg 86%
    14:00 +1°C° 0 mm 1 mps 763 mmHg 86%
    15:00 0°C° 0 mm 1 mps 763 mmHg 89%
    16:00 -1°C° 0 mm 1 mps 763 mmHg 91%
    17:00 -4°C° 0 mm 2 mps 763 mmHg 94%
    18:00 -4°C° 0 mm 2 mps 763 mmHg 94%
    19:00 -4°C° 0 mm 2 mps 762 mmHg 94%
    20:00 -5°C° 0 mm 2 mps 762 mmHg 95%
    21:00 -5°C° 0 mm 2 mps 762 mmHg 95%
    22:00 -5°C° 0 mm 2 mps 762 mmHg 94%
    23:00 -5°C° 0 mm 2 mps 762 mmHg 94%

    Tomorrow, 22 November, Thursday

    Time Temperature Precipitation Wind Pressure Humidity
    00:00 -4°C° 0 mm 2 mps 762 mmHg 94%
    01:00 -4°C° 0 mm 2 mps 761 mmHg 94%
    02:00 -5°C° 0 mm 3 mps 761 mmHg 94%
    03:00 -5°C° 0 mm 3 mps 761 mmHg 94%
    04:00 -5°C° 0 mm 3 mps 760 mmHg 94%
    05:00 -5°C° 0 mm 3 mps 760 mmHg 94%
    06:00 -5°C° 0 mm 3 mps 760 mmHg 93%
    07:00 -5°C° 0 mm 3 mps 759 mmHg 92%
    08:00 -5°C° 0 mm 3 mps 759 mmHg 91%
    09:00 -4°C° 0 mm 4 mps 759 mmHg 88%
    10:00 -3°C° 0 mm 4 mps 758 mmHg 85%
    11:00 -3°C° 0 mm 4 mps 758 mmHg 81%
    12:00 -2°C° 0 mm 4 mps 758 mmHg 82%
    13:00 -2°C° 0 mm 4 mps 758 mmHg 82%
    14:00 -2°C° 0 mm 4 mps 758 mmHg 82%
    15:00 -2°C° 0 mm 4 mps 758 mmHg 83%
    16:00 -2°C° 0 mm 4 mps 758 mmHg 84%
    17:00 -2°C° 0 mm 4 mps 758 mmHg 85%
    18:00 -2°C° 0 mm 4 mps 758 mmHg 87%
    19:00 -1°C° 0 mm 3 mps 758 mmHg 89%
    20:00 -2°C° 0 mm 3 mps 758 mmHg 91%
    21:00 -1°C° 0 mm 3 mps 758 mmHg 91%
    22:00 -1°C° 0 mm 3 mps 758 mmHg 91%
    23:00 -1°C° 0 mm 2 mps 759 mmHg 92%

    Day after tomorrow, 23 November, Friday

    Time Temperature Precipitation Wind Pressure Humidity
    00:00 -1°C° 0 mm 2 mps 759 mmHg 93%
    01:00 -1°C° 0 mm 2 mps 759 mmHg 94%
    02:00 -2°C° 0 mm 2 mps 759 mmHg 96%
    03:00 -2°C° 0 mm 2 mps 760 mmHg 96%
    04:00 0°C° 0 mm 1 mps 760 mmHg 96%
    05:00 -1°C° 0 mm 1 mps 760 mmHg 97%
    06:00 0°C° 0 mm 1 mps 760 mmHg 96%
    07:00 0°C° 0 mm 1 mps 760 mmHg 96%
    08:00 0°C° 0 mm 1 mps 761 mmHg 95%
    09:00 0°C° 0 mm 1 mps 761 mmHg 93%
    10:00 -1°C° 0 mm 2 mps 761 mmHg 91%
    11:00 -1°C° 0 mm 2 mps 761 mmHg 89%
    12:00 -1°C° 0 mm 2 mps 761 mmHg 88%
    13:00 +1°C° 0 mm 2 mps 760 mmHg 87%
    14:00 0°C° 0 mm 3 mps 760 mmHg 86%
    15:00 0°C° 0 mm 3 mps 760 mmHg 87%
    16:00 -1°C° 0 mm 3 mps 760 mmHg 87%
    17:00 -1°C° 0 mm 3 mps 759 mmHg 88%
    18:00 -1°C° 0 mm 3 mps 759 mmHg 87%
    19:00 -2°C° 0 mm 4 mps 759 mmHg 86%
    20:00 -2°C° 0 mm 4 mps 758 mmHg 85%
    21:00 -2°C° 0 mm 4 mps 758 mmHg 85%
    22:00 -2°C° 0 mm 4 mps 757 mmHg 85%
    23:00 -3°C° 0 mm 4 mps 757 mmHg 85%

    24 November, Saturday

    Time Temperature Precipitation Wind Pressure Humidity
    00:00 -3°C° 0 mm 4 mps 756 mmHg 85%
    01:00 -3°C° 0 mm 4 mps 756 mmHg 85%
    02:00 -3°C° 0 mm 4 mps 756 mmHg 85%
    03:00 -4°C° 0 mm 4 mps 755 mmHg 86%
    04:00 -4°C° 0 mm 4 mps 755 mmHg 87%
    05:00 -5°C° 0 mm 3 mps 754 mmHg 89%
    06:00 -5°C° 0 mm 3 mps 753 mmHg 88%
    07:00 -5°C° 0 mm 3 mps 753 mmHg 88%
    08:00 -5°C° 0 mm 3 mps 753 mmHg 88%
    09:00 -5°C° 0 mm 3 mps 752 mmHg 85%
    10:00 -4°C° 0 mm 3 mps 752 mmHg 82%
    11:00 -2°C° 0 mm 3 mps 752 mmHg 79%
    12:00 -2°C° 0.1 mm 3 mps 752 mmHg 80%
    13:00 -2°C° 0.1 mm 3 mps 751 mmHg 81%
    14:00 -2°C° 0.1 mm 3 mps 751 mmHg 82%
    15:00 -2°C° 0.1 mm 3 mps 751 mmHg 85%
    16:00 -2°C° 0.1 mm 2 mps 751 mmHg 88%
    17:00 -2°C° 0.1 mm 2 mps 751 mmHg 90%
    18:00 -2°C° 0 mm 2 mps 751 mmHg 91%
    19:00 -2°C° 0 mm 2 mps 751 mmHg 92%
    20:00 -2°C° 0 mm 2 mps 751 mmHg 93%
    21:00 -1°C° 0 mm 1 mps 752 mmHg 94%
    22:00 -1°C° 0 mm 1 mps 752 mmHg 94%
    23:00 -1°C° 0 mm 1 mps 752 mmHg 95%

    25 November, Sunday

    Time Temperature Precipitation Wind Pressure Humidity
    00:00 -1°C° 0 mm 1 mps 752 mmHg 95%
    01:00 -1°C° 0 mm 1 mps 752 mmHg 95%
    02:00 -1°C° 0 mm 0 mps 752 mmHg 95%
    03:00 -1°C° 0 mm 0 mps 752 mmHg 94%
    04:00 -1°C° 0 mm 0 mps 752 mmHg 94%
    05:00 -1°C° 0 mm 0 mps 752 mmHg 94%
    06:00 0°C° 0 mm 1 mps 752 mmHg 93%
    07:00 -1°C° 0 mm 1 mps 752 mmHg 93%
    08:00 -1°C° 0 mm 1 mps 752 mmHg 92%
    09:00 0°C° 0 mm 1 mps 752 mmHg 89%
    10:00 0°C° 0 mm 1 mps 752 mmHg 87%
    11:00 0°C° 0 mm 1 mps 752 mmHg 85%
    12:00 0°C° 0 mm 1 mps 752 mmHg 84%
    13:00 0°C° 0 mm 1 mps 752 mmHg 83%
    14:00 0°C° 0 mm 1 mps 752 mmHg 83%
    15:00 -1°C° 0 mm 1 mps 752 mmHg 85%
    16:00 -3°C° 0 mm 2 mps 752 mmHg 88%
    17:00 -4°C° 0 mm 2 mps 752 mmHg 90%
    18:00 -4°C° 0 mm 2 mps 752 mmHg 87%
    19:00 -4°C° 0 mm 2 mps 752 mmHg 84%
    20:00 -4°C° 0 mm 3 mps 752 mmHg 80%
    21:00 -5°C° 0 mm 3 mps 752 mmHg 79%
    22:00 -4°C° 0 mm 2 mps 752 mmHg 78%
    23:00 -4°C° 0 mm 2 mps 752 mmHg 76%

    26 November, Monday

    Time Temperature Precipitation Wind Pressure Humidity
    00:00 -5°C° 0 mm 3 mps 752 mmHg 76%
    01:00 -6°C° 0 mm 3 mps 752 mmHg 76%
    02:00 -6°C° 0 mm 3 mps 752 mmHg 76%
    03:00 -6°C° 0 mm 3 mps 752 mmHg 76%
    04:00 -5°C° 0 mm 2 mps 752 mmHg 76%
    05:00 -6°C° 0 mm 2 mps 753 mmHg 76%
    06:00 -6°C° 0 mm 2 mps 753 mmHg 78%
    07:00 -6°C° 0 mm 2 mps 753 mmHg 79%
    08:00 -6°C° 0 mm 2 mps 753 mmHg 80%
    09:00 -5°C° 0 mm 2 mps 753 mmHg 80%
    10:00 -4°C° 0 mm 2 mps 753 mmHg 79%
    11:00 -4°C° 0 mm 2 mps 753 mmHg 79%
    12:00 -3°C° 0 mm 2 mps 753 mmHg 79%
    13:00 -3°C° 0 mm 2 mps 753 mmHg 80%
    14:00 -3°C° 0 mm 2 mps 753 mmHg 81%
    15:00 -4°C° 0 mm 2 mps 753 mmHg 84%
    16:00 -4°C° 0 mm 2 mps 753 mmHg 88%
    17:00 -5°C° 0 mm 2 mps 753 mmHg 92%
    18:00 -5°C° 0 mm 2 mps 753 mmHg 92%
    19:00 -4°C° 0 mm 2 mps 753 mmHg 92%
    20:00 -4°C° 0 mm 2 mps 753 mmHg 92%
    21:00 -4°C° 0 mm 2 mps 753 mmHg 93%
    22:00 -4°C° 0 mm 2 mps 753 mmHg 94%
    23:00 -4°C° 0 mm 2 mps 753 mmHg 94%
    Show more